DELTA 1 DEB, 14472

Orbit data source: Space-Track

DELTA 1 DEB, 14472 is space debris in SSO originally from a launch on Thu, 29 Jul 1976 UTC launched from the Air Force Western Test Range (AFWTR). Debris objects in space refer to the collection of defunct objects orbiting the Earth. Examples of debris include non-operational satellites, rocket bodies, and fragments generated from explosions, collisions, or faulty payload assembly.

Loading next visibility...
Identifier
14472, 1976-077EP
Orbit
SSO
Country
Flag of USUS
Related business
Manufacturer
Unknown
Mission
Spacecraft
Bus & Motor
Unknown
Mass
Unknown
Launch date (UTC)
1976-07-29 (50 years ago)
Launch vehicle
Unknown
Launch site
Air Force Western Test Range (AFWTR)
Object type
Payload
Rocket body
Debris
Shape & HBR
Unknown shape, 0.1 m
Radar Cross Section
Small (<0.1 m²)

Expand to show TLE details & history
Last TLE update: 12 hours ago

TLE from 12 hours ago
0 DELTA 1 DEB
1 14472U 76077EP  26122.23174291 -.00000039  00000-0  76852-4 0  9992
2 14472 102.8300 108.7552 0154975 312.5950  57.3686 12.16365494927709
Epoch: 2026-05-02T05:33Z
TLE epoch observation values (Epoch: 2026-05-02T05:33:42.587Z)
Latitude
11.14406°
Longitude
162.61632°
Altitude
1,544.775 km
Speed
7.124 km/s
True Right ascension
07h 04m 47s
True Declination
11° 05' 08"
Sunlit
Object was in daylight at epoch
Visualization orbit readout
Latitude
Unknown
Longitude
Unknown
Altitude
Unknown
Speed
Unknown
Apparent Right ascension
Unknown
Apparent Declination
Unknown
Sunlit
N/A
Visualization observer readout
Local Sidereal Time
01:39:19
Azimuth
Unknown
Elevation
Unknown
Doppler factor
Unknown
Orbital elements
Apogee altitude
1,729.802 km
Perigee altitude
1,482.331 km
Semi-major axis
7,984.203 km
Eccentricity
0.0155
Inclination
102.83°
RAAN
108.7552°
Arg. of periapsis
312.595°
True anomaly
58.87978°
Mean anomaly
57.3686°
Eccentric anomaly
58.12262°
Mean motion
3.04226 °/min
Orbital period
118.33 mins
BSTAR
0.000076852
Loading maneuver chart data...
Computing Atmospheric mass density...
Loading historical data...
Loading historical data...
Loading historical data...
Loading historical data...
Loading historical data...
Loading historical data...
Loading historical data...

Documentation

Showing up to 5 results
|